Location: St. Louis
(38.6270°N, 90.1994°W)
Time: 13:56:44
(UTC-06:00)

S-56A Canister/Altair - Pass Details

Date: 03 December 2021
Orbit: 633 x 2499 km, 38.9° (Epoch: 19 January)

Event Time Altitude Azimuth Distance (km) Brightness Sun altitude
Rises 01:34:13 0° 259° (W) 4,804 - -62.4°
Reaches altitude 10° 01:37:54 10° 260° (W) 3,514 - -61.8°
Maximum altitude 01:46:17 88° 174° (S) 1,024 - -60.3°
Drops below altitude 10° 01:51:51 10° 83° (E) 2,384 - -59.3°
Sets 01:53:56 0° 83° (E) 3,180 - -58.9°
